Location: Anjeux
(47.8815°N, 6.2076°E)
Time: 23:34:54
(UTC+00:00)

ISS - Pass Details

Date: 06 October 2021
Orbit: 417 x 423 km, 51.6° (Epoch: 20 October)

Event Time Altitude Azimuth Distance (km) Brightness Sun altitude
Rises 17:28:24 0° 291° (WNW) 2,365 1.5 -4.9°
Reaches altitude 10° 17:30:35 10° 283° (WNW) 1,500 0.6 -5.2°
Maximum altitude 17:33:43 36° 215° (SW) 676 -2.3 -5.8°
Drops below altitude 10° 17:36:50 10° 146° (SSE) 1,496 -1.3 -6.3°
Enters shadow 17:39:11 -1° 138° (SE) 2,428 -0.3 -6.7°
